Вернуться в каталог

QIANFAN-13

АктивенСвязьPO
NORAD 60391·PAYLOAD·🇨🇳 China

Запущен Aug 6, 2024 с Taiyuan Satellite Launch Center

Loading…

Ближайшие Пролёты (ближайшие 24 часа)

TLE

СвежийSource: Space-Track

Эпоха: Sep 14, 2026, 12:40 UTC

1 60391U 24140N   26257.52785128  .00000015  00000-0  49165-5 0  9996
2 60391  88.9908 270.8664 0014709 126.2218 234.0295 13.51023667104508

Отслеживайте QIANFAN-13 в реальном времени с AllMySat

Download on the App Store